TimeEST,TemperatureF,Dew PointF,Humidity,Sea Level PressureIn,VisibilityMPH,Wind Direction,Wind SpeedMPH,Gust SpeedMPH,PrecipitationIn,Events,Conditions,WindDirDegrees,DateUTC
12:15 AM,38.5,29.8,71,30.30,10.0,North,8.1,-,N/A,,Clear,10,2012-12-06 05:15:00
12:35 AM,36.7,29.5,75,30.30,10.0,North,4.6,-,N/A,,Clear,10,2012-12-06 05:35:00
12:55 AM,35.8,28.9,76,30.30,10.0,Calm,Calm,-,N/A,,Clear,0,2012-12-06 05:55:00
1:15 AM,32.5,28.6,85,30.30,10.0,Calm,Calm,-,N/A,,Clear,0,2012-12-06 06:15:00
1:35 AM,32.7,27.9,82,30.30,10.0,Calm,Calm,-,N/A,,Clear,0,2012-12-06 06:35:00
1:55 AM,32.0,28.0,85,30.31,10.0,North,4.6,-,N/A,,Clear,350,2012-12-06 06:55:00
2:15 AM,34.0,28.0,79,30.32,10.0,Calm,Calm,-,N/A,,Clear,0,2012-12-06 07:15:00
2:35 AM,31.3,26.8,83,30.31,10.0,North,4.6,-,N/A,,Clear,10,2012-12-06 07:35:00
2:55 AM,32.9,27.9,82,30.31,10.0,North,6.9,-,N/A,,Clear,360,2012-12-06 07:55:00
3:15 AM,32.9,27.7,81,30.32,10.0,North,3.5,-,N/A,,Clear,10,2012-12-06 08:15:00
3:35 AM,31.1,26.4,83,30.32,10.0,Calm,Calm,-,N/A,,Clear,0,2012-12-06 08:35:00
3:55 AM,29.8,27.3,90,30.32,10.0,Calm,Calm,-,N/A,,Clear,0,2012-12-06 08:55:00
4:15 AM,30.9,26.1,82,30.31,10.0,Calm,Calm,-,N/A,,Clear,0,2012-12-06 09:15:00
4:35 AM,27.5,26.6,96,30.32,10.0,Calm,Calm,-,N/A,,Clear,0,2012-12-06 09:35:00
4:55 AM,28.2,26.1,92,30.32,10.0,Calm,Calm,-,N/A,,Clear,0,2012-12-06 09:55:00
5:15 AM,27.7,24.6,88,30.33,10.0,Calm,Calm,-,N/A,,Clear,0,2012-12-06 10:15:00
5:35 AM,29.8,27.0,89,30.32,10.0,NNE,4.6,-,N/A,,Clear,20,2012-12-06 10:35:00
5:55 AM,31.1,27.3,86,30.33,10.0,Calm,Calm,-,N/A,,Clear,0,2012-12-06 10:55:00
6:15 AM,27.1,26.1,96,30.34,10.0,Calm,Calm,-,N/A,,Clear,0,2012-12-06 11:15:00
6:35 AM,25.0,25.0,100,30.34,10.0,Calm,Calm,-,N/A,,Clear,0,2012-12-06 11:35:00
6:55 AM,28.2,26.8,94,30.33,10.0,NE,5.8,-,N/A,,Clear,40,2012-12-06 11:55:00
7:15 AM,24.1,23.5,98,30.35,10.0,Calm,Calm,-,N/A,,Clear,0,2012-12-06 12:15:00
7:35 AM,25.2,25.2,100,30.36,10.0,Calm,Calm,-,N/A,,Clear,0,2012-12-06 12:35:00
7:55 AM,27.5,26.4,96,30.38,10.0,Calm,Calm,-,N/A,,Clear,0,2012-12-06 12:55:00
8:15 AM,30.2,28.9,95,30.38,10.0,Calm,Calm,-,N/A,,Clear,0,2012-12-06 13:15:00
8:35 AM,33.1,31.1,92,30.38,10.0,Calm,Calm,-,N/A,,Clear,0,2012-12-06 13:35:00
8:55 AM,35.6,29.8,80,30.38,10.0,Calm,Calm,-,N/A,,Clear,0,2012-12-06 13:55:00
9:15 AM,36.5,29.8,77,30.38,10.0,NE,5.8,-,N/A,,Clear,50,2012-12-06 14:15:00
9:35 AM,37.6,30.2,75,30.38,10.0,NE,4.6,-,N/A,,Clear,50,2012-12-06 14:35:00
9:55 AM,38.3,29.8,72,30.39,10.0,NNE,6.9,-,N/A,,Clear,30,2012-12-06 14:55:00
10:15 AM,39.2,30.2,70,30.39,10.0,NNE,4.6,-,N/A,,Clear,30,2012-12-06 15:15:00
10:35 AM,39.7,29.8,68,30.38,10.0,East,3.5,-,N/A,,Clear,90,2012-12-06 15:35:00
10:55 AM,40.3,29.8,66,30.38,10.0,North,6.9,-,N/A,,Clear,350,2012-12-06 15:55:00
11:15 AM,40.8,29.3,64,30.37,10.0,Calm,Calm,-,N/A,,Clear,0,2012-12-06 16:15:00
11:35 AM,41.4,29.3,62,30.35,10.0,North,3.5,-,N/A,,Clear,350,2012-12-06 16:35:00
11:55 AM,42.4,30.4,62,30.34,10.0,ENE,5.8,-,N/A,,Clear,60,2012-12-06 16:55:00
12:15 PM,42.8,30.4,62,30.33,10.0,North,4.6,-,N/A,,Clear,350,2012-12-06 17:15:00
12:55 PM,44.2,30.2,58,30.30,10.0,SE,3.5,-,N/A,,Clear,130,2012-12-06 17:55:00
1:15 PM,45.0,30.6,57,30.29,10.0,SE,3.5,-,N/A,,Clear,140,2012-12-06 18:15:00
1:35 PM,45.0,30.6,57,30.29,10.0,SSE,3.5,-,N/A,,Clear,150,2012-12-06 18:35:00
1:55 PM,44.4,30.6,58,30.28,10.0,East,3.5,-,N/A,,Clear,100,2012-12-06 18:55:00
2:15 PM,45.1,31.1,58,30.27,10.0,SW,4.6,-,N/A,,Clear,230,2012-12-06 19:15:00
2:35 PM,45.5,29.8,54,30.27,10.0,Calm,Calm,-,N/A,,Clear,0,2012-12-06 19:35:00
2:55 PM,46.2,30.0,53,30.27,10.0,WSW,3.5,-,N/A,,Clear,240,2012-12-06 19:55:00
3:15 PM,44.6,30.0,57,30.27,10.0,Calm,Calm,-,N/A,,Clear,0,2012-12-06 20:15:00
3:35 PM,45.5,30.4,56,30.27,10.0,WSW,3.5,-,N/A,,Clear,240,2012-12-06 20:35:00
3:55 PM,45.5,30.6,56,30.27,10.0,Calm,Calm,-,N/A,,Clear,0,2012-12-06 20:55:00
4:15 PM,44.4,30.9,59,30.26,10.0,Calm,Calm,-,N/A,,Clear,0,2012-12-06 21:15:00
4:35 PM,42.3,30.4,63,30.26,10.0,Calm,Calm,-,N/A,,Clear,0,2012-12-06 21:35:00
4:55 PM,36.9,30.2,77,30.26,10.0,Calm,Calm,-,N/A,,Clear,0,2012-12-06 21:55:00
5:15 PM,37.2,30.6,77,30.26,10.0,Calm,Calm,-,N/A,,Clear,0,2012-12-06 22:15:00
5:35 PM,35.2,30.0,81,30.26,10.0,Calm,Calm,-,N/A,,Clear,0,2012-12-06 22:35:00
5:55 PM,32.7,28.8,85,30.26,10.0,Calm,Calm,-,N/A,,Clear,0,2012-12-06 22:55:00
6:15 PM,33.8,29.3,84,30.26,10.0,Calm,Calm,-,N/A,,Clear,0,2012-12-06 23:15:00
6:35 PM,31.8,29.3,90,30.26,10.0,Calm,Calm,-,N/A,,Clear,0,2012-12-06 23:35:00
6:55 PM,30.9,28.4,90,30.25,10.0,SE,3.5,-,N/A,,Clear,130,2012-12-06 23:55:00
7:15 PM,32.2,29.5,90,30.26,10.0,SE,3.5,-,N/A,,Clear,140,2012-12-07 00:15:00
7:35 PM,33.1,28.8,84,30.26,10.0,SE,4.6,-,N/A,,Clear,140,2012-12-07 00:35:00
7:55 PM,33.6,29.1,84,30.25,10.0,SE,4.6,-,N/A,,Clear,140,2012-12-07 00:55:00
8:15 PM,34.3,29.3,82,30.25,10.0,SE,4.6,-,N/A,,Clear,130,2012-12-07 01:15:00
8:35 PM,34.3,30.0,84,30.25,10.0,Calm,Calm,-,N/A,,Clear,0,2012-12-07 01:35:00
8:55 PM,31.5,29.7,93,30.25,10.0,Calm,Calm,-,N/A,,Clear,0,2012-12-07 01:55:00
9:35 PM,35.1,31.8,88,30.24,10.0,SE,5.8,-,N/A,,Scattered Clouds,130,2012-12-07 02:35:00
9:55 PM,36.5,31.8,83,30.25,10.0,Calm,Calm,-,N/A,,Scattered Clouds,0,2012-12-07 02:55:00
10:15 PM,36.7,32.0,83,30.25,10.0,Calm,Calm,-,N/A,,Scattered Clouds,0,2012-12-07 03:15:00
10:35 PM,36.7,32.9,86,30.24,10.0,Calm,Calm,-,N/A,,Overcast,0,2012-12-07 03:35:00
10:55 PM,38.1,32.2,79,30.24,10.0,Calm,Calm,-,N/A,,Overcast,0,2012-12-07 03:55:00
11:15 PM,38.1,32.9,81,30.23,10.0,Calm,Calm,-,N/A,,Overcast,0,2012-12-07 04:15:00
11:55 PM,39.0,33.6,81,30.23,10.0,Calm,Calm,-,N/A,,Overcast,0,2012-12-07 04:55:00